Weather History for Crestview, FL

Change the Weather History Date:

Wednesday, February 27, 2013

  Actual Average Record
Temperature  
Mean Temperature 52 °F -  
Max Temperature 63 °F - - ()
Min Temperature 41 °F - - ()
Degree Days  
Heating Degree Days 13    
Growing Degree Days 2 (Base 50)    
Moisture  
Dew Point 41 °F    
Average Humidity 66    
Maximum Humidity 97    
Minimum Humidity 38    
Precipitation  
Precipitation 0.00 in - - ()
Sea Level Pressure  
Sea Level Pressure 29.97 in    
Wind  
Wind Speed 5 mph (WSW)    
Max Wind Speed 14 mph    
Max Gust Speed -    
Visibility 10 miles    
Events      
T = Trace of Precipitation, MM = Missing Value Source: NWS Daily Summary

Daily Weather History Graph

Daily Weather History Graph

Search for Another Location

Airport:

Trip Planner

Search our weather history database for the weather conditions in past years. The results will help you decide how hot, cold, wet, or windy it might be!

Date:

Astronomy

Feb. 27, 2013 Rise Set
Actual Time 6:14 AM CST 5:43 PM CST
Civil Twilight 5:50 AM CST 6:07 PM CST
Nautical Twilight 5:22 AM CST 6:35 PM CST
Astronomical Twilight 4:54 AM CST 7:03 PM CST
Moon 7:50 PM CST (2/27) 7:00 AM CST (2/27)
Length of Visible Light 12h 17m
Length of Day
11h 29m
Waning Gibbous, 96% of the Moon is Illuminated
Feb 27
Waning Gibbous
Mar 4
Last Quarter
Mar 11
New
Mar 19
First Quarter
Mar 27
Full

Hourly Weather History & Observations

Time (CST) Temp. Windchill Dew Point Humidity Pressure Visibility Wind Dir Wind Speed Gust Speed Precip Events Conditions
12:58 AM 49.6 °F - 42.8 °F 77% 29.93 in 10.0 mi WNW 4.6 mph - N/A   Clear
1:58 AM 48.2 °F - 42.3 °F 80% 29.93 in 10.0 mi NNW 4.6 mph - N/A   Mostly Cloudy
2:58 AM 46.8 °F - 41.9 °F 83% 29.92 in 10.0 mi Calm Calm - N/A   Scattered Clouds
3:58 AM 45.0 °F 41.8 °F 42.4 °F 91% 29.93 in 10.0 mi SSE 5.8 mph - N/A   Partly Cloudy
4:58 AM 44.2 °F - 41.9 °F 91% 29.96 in 10.0 mi NW 2.3 mph - N/A   Clear
5:58 AM 41.9 °F - 41.2 °F 97% 29.96 in 10.0 mi NW 2.3 mph - N/A   Clear
6:58 AM 42.1 °F - 41.4 °F 97% 29.97 in 10.0 mi Calm Calm - N/A   Scattered Clouds
7:58 AM 47.1 °F - 41.9 °F 82% 29.98 in 10.0 mi North 1.2 mph - N/A   Clear
8:55 AM 50.7 °F - 38.7 °F 63% 30.01 in 9.0 mi Calm Calm - N/A   Mostly Cloudy
9:55 AM 55.9 °F - 36.7 °F 48% 30.02 in 10.0 mi WNW 5.8 mph - N/A   Mostly Cloudy
10:55 AM 57.2 °F - 35.6 °F 44% 30.03 in 10.0 mi West 6.9 mph - N/A   Mostly Cloudy
11:55 AM 58.6 °F - 35.8 °F 42% 30.01 in 10.0 mi West 6.9 mph - N/A   Mostly Cloudy
12:57 PM 60.1 °F - 36.5 °F 41% 29.99 in 10.0 mi SW 6.9 mph - N/A   Mostly Cloudy
1:55 PM 62.6 °F - 37.6 °F 40% 29.96 in 10.0 mi SW 10.4 mph - N/A   Mostly Cloudy
2:55 PM 63.9 °F - 37.4 °F 38% 29.95 in 10.0 mi West 13.8 mph - N/A   Scattered Clouds
3:55 PM 62.8 °F - 38.3 °F 40% 29.94 in 10.0 mi West 6.9 mph - N/A   Mostly Cloudy
4:55 PM 61.5 °F - 41.2 °F 47% 29.95 in 10.0 mi SW 9.2 mph - N/A   Mostly Cloudy
5:55 PM 56.5 °F - 41.5 °F 57% 29.97 in 10.0 mi SSW 9.2 mph - N/A   Scattered Clouds
6:53 PM 53.6 °F - 41.0 °F 62% 29.96 in 10.0 mi SSW 8.1 mph - N/A   Clear
6:55 PM 53.8 °F - 41.7 °F 64% 29.97 in 10.0 mi SSW 8.1 mph - N/A   Partly Cloudy
7:55 PM 52.0 °F - 41.7 °F 68% 29.98 in 10.0 mi WSW 4.6 mph - N/A   Partly Cloudy
8:55 PM 52.9 °F - 43.2 °F 70% 29.98 in 10.0 mi WSW 6.9 mph - N/A   Partly Cloudy
9:55 PM 51.8 °F - 44.1 °F 75% 29.99 in 10.0 mi WSW 3.5 mph - N/A   Clear
10:55 PM 50.7 °F - 44.6 °F 80% 29.98 in 10.0 mi West 4.6 mph - N/A   Partly Cloudy
11:55 PM 48.0 °F - 43.3 °F 84% 29.98 in 10.0 mi WNW 3.5 mph - N/A   Partly Cloudy